Weather History for Flora, IL

Change the Weather History Date:

Monday, December 31, 2012

  Actual Average (KEVV) Record (KEVV)
Temperature  
Mean Temperature 31 °F 33 °F  
Max Temperature 36 °F 41 °F 75 °F (1951)
Min Temperature 26 °F 25 °F -3 °F (1976)
Degree Days  
Heating Degree Days 34 32  
Month to date heating degree days 912  
Since 1 July heating degree days 1772  
Cooling Degree Days 0 0  
Month to date cooling degree days 0  
Year to date cooling degree days 1397  
Moisture  
Dew Point 30 °F    
Average Humidity 89    
Maximum Humidity 100    
Minimum Humidity 73    
Precipitation  
Precipitation 0.05 in 0.10 in 1.34 in (2002)
Month to date precipitation 3.76  
Year to date precipitation 45.31  
Snow  
Snow 0.00 in 0.10 in 2.00 in (1960)
Month to date snowfall 3.2  
Since 1 July snowfall 3.5  
Snow Depth -    
Sea Level Pressure  
Sea Level Pressure 30.17 in    
Wind  
Wind Speed 8 mph (SW)    
Max Wind Speed 14 mph    
Max Gust Speed 16 mph    
Visibility 6 miles    
Events Rain , Snow    
T = Trace of Precipitation, MM = Missing Value Source: NWS Daily Summary

Daily Weather History Graph

Daily Weather History Graph

Search for Another Location

Airport:

Trip Planner

Search our weather history database for the weather conditions in past years. The results will help you decide how hot, cold, wet, or windy it might be!

Date:

Astronomy

Dec. 31, 2012 Rise Set
Actual Time 7:11 AM CST 4:42 PM CST
Civil Twilight 6:41 AM CST 5:12 PM CST
Nautical Twilight 6:08 AM CST 5:45 PM CST
Astronomical Twilight 5:36 AM CST 6:17 PM CST
Moon 8:10 PM CST (12/31) 8:55 AM CST (12/31)
Length of Visible Light 10h 30m
Length of Day
9h 30m
Waning Gibbous, 90% of the Moon is Illuminated
Dec 31
Waning Gibbous
Jan 4
Last Quarter
Jan 11
New
Jan 18
First Quarter
Jan 26
Full

Hourly Weather History & Observations

Time (CST) Temp. Windchill Dew Point Humidity Pressure Visibility Wind Dir Wind Speed Gust Speed Precip Events Conditions
12:15 AM 26.6 °F 17.5 °F 23.9 °F 90% 30.27 in 7.0 mi South 9.2 mph - N/A   Clear
12:35 AM 27.5 °F 18.6 °F 24.6 °F 89% 30.26 in 7.0 mi South 9.2 mph - N/A   Clear
12:55 AM 28.9 °F 19.2 °F 25.2 °F 86% 30.25 in 10.0 mi South 11.5 mph 16.1 mph N/A   Clear
1:15 AM 30.4 °F 20.5 °F 25.7 °F 83% 30.24 in 10.0 mi SSW 12.7 mph - N/A   Clear
1:35 AM 30.7 °F 20.4 °F 25.7 °F 82% 30.23 in 10.0 mi SSW 13.8 mph - N/A   Clear
1:55 AM 30.6 °F 20.2 °F 25.7 °F 82% 30.24 in 10.0 mi SSW 13.8 mph - N/A   Clear
2:15 AM 30.6 °F 20.7 °F 25.7 °F 82% 30.25 in 10.0 mi SSW 12.7 mph - N/A   Clear
2:35 AM 30.9 °F 21.2 °F 26.1 °F 82% 30.26 in 10.0 mi SW 12.7 mph - N/A   Clear
2:55 AM 30.2 °F 22.6 °F 25.9 °F 84% 30.25 in 10.0 mi SSW 8.1 mph - N/A   Clear
3:15 AM 30.0 °F 24.1 °F 26.1 °F 85% 30.25 in 10.0 mi SSW 5.8 mph - N/A   Clear
3:35 AM 30.6 °F 24.7 °F 26.4 °F 85% 30.24 in 10.0 mi SSW 5.8 mph - N/A   Scattered Clouds
3:55 AM 31.3 °F 25.6 °F 26.6 °F 83% 30.25 in 10.0 mi SSW 5.8 mph - N/A   Scattered Clouds
4:15 AM 32.0 °F 25.6 °F 27.1 °F 82% 30.24 in 10.0 mi South 6.9 mph - N/A   Clear
4:35 AM 32.0 °F 24.2 °F 27.0 °F 82% 30.24 in 10.0 mi South 9.2 mph - N/A   Scattered Clouds
4:55 AM 32.5 °F 25.5 °F 26.8 °F 79% 30.23 in 10.0 mi SSW 8.1 mph - N/A   Scattered Clouds
5:15 AM 32.5 °F 25.5 °F 27.0 °F 80% 30.23 in 10.0 mi SSW 8.1 mph - N/A   Scattered Clouds
5:35 AM 32.5 °F 24.2 °F 27.0 °F 80% 30.23 in 10.0 mi SSW 10.4 mph - N/A   Scattered Clouds
5:55 AM 32.7 °F 25.7 °F 27.0 °F 79% 30.22 in 10.0 mi SSW 8.1 mph - N/A   Clear
6:15 AM 32.5 °F 24.2 °F 27.1 °F 80% 30.22 in 10.0 mi SSW 10.4 mph - N/A   Clear
6:35 AM 32.7 °F 24.5 °F 27.3 °F 81% 30.22 in 10.0 mi SSW 10.4 mph - N/A   Scattered Clouds
6:55 AM 33.1 °F 24.9 °F 27.5 °F 80% 30.21 in 10.0 mi SSW 10.4 mph - N/A   Clear
7:15 AM 32.9 °F 24.1 °F 27.7 °F 81% 30.22 in 10.0 mi SSW 11.5 mph - N/A   Scattered Clouds
7:35 AM 33.3 °F 25.7 °F 27.9 °F 81% 30.21 in 10.0 mi SSW 9.2 mph - N/A   Mostly Cloudy
7:55 AM 33.4 °F 25.9 °F 27.7 °F 79% 30.21 in 10.0 mi SSW 9.2 mph - N/A   Overcast
8:15 AM 33.4 °F 25.9 °F 28.2 °F 81% 30.20 in 10.0 mi SSW 9.2 mph - N/A   Scattered Clouds
8:35 AM 33.4 °F 25.9 °F 28.0 °F 81% 30.20 in 10.0 mi SSW 9.2 mph - N/A   Mostly Cloudy
8:55 AM 33.8 °F 27.0 °F 28.0 °F 79% 30.19 in 10.0 mi SSW 8.1 mph - N/A   Scattered Clouds
9:15 AM 33.8 °F 27.0 °F 28.2 °F 80% 30.19 in 10.0 mi SSW 8.1 mph - N/A   Scattered Clouds
9:35 AM 34.2 °F 26.8 °F 28.2 °F 79% 30.19 in 10.0 mi SSW 9.2 mph - N/A   Scattered Clouds
9:55 AM 34.7 °F 26.9 °F 28.4 °F 78% 30.19 in 10.0 mi SSW 10.4 mph - N/A   Mostly Cloudy
10:15 AM 34.7 °F 25.9 °F 28.4 °F 78% 30.20 in 10.0 mi SSW 12.7 mph - N/A   Scattered Clouds
10:35 AM 35.1 °F 26.9 °F 28.4 °F 77% 30.19 in 10.0 mi SSW 11.5 mph - N/A   Clear
10:55 AM 35.6 °F 28.0 °F 28.4 °F 75% 30.19 in 10.0 mi SSW 10.4 mph - N/A   Scattered Clouds
11:15 AM 35.6 °F 27.5 °F 28.0 °F 74% 30.19 in 10.0 mi SW 11.5 mph - N/A   Scattered Clouds
11:35 AM 36.0 °F 28.0 °F 28.2 °F 73% 30.19 in 10.0 mi WSW 11.5 mph - N/A   Clear
11:55 AM 36.0 °F 28.5 °F 28.4 °F 74% 30.18 in 7.0 mi WSW 10.4 mph - N/A Snow Light Snow
12:15 PM 34.2 °F 28.2 °F 30.7 °F 87% 30.17 in 2.0 mi WSW 6.9 mph - N/A Snow Light Snow
12:35 PM 33.8 °F 28.6 °F 31.6 °F 92% 30.15 in 5.0 mi WSW 5.8 mph - N/A Snow Light Snow
12:55 PM 34.2 °F 31.2 °F 31.6 °F 90% 30.14 in 7.0 mi WSW 3.5 mph - N/A Snow Light Snow
1:15 PM 34.3 °F 30.2 °F 31.6 °F 90% 30.13 in 7.0 mi WSW 4.6 mph - N/A Rain Light Rain
1:35 PM 34.0 °F 29.8 °F 31.6 °F 91% 30.13 in 5.0 mi WSW 4.6 mph - N/A   Drizzle
1:55 PM 33.8 °F 30.8 °F 32.0 °F 93% 30.12 in 5.0 mi SW 3.5 mph - N/A Rain Rain
2:15 PM 33.4 °F 29.1 °F 32.0 °F 94% 30.12 in 4.0 mi WSW 4.6 mph - N/A Rain Light Rain
2:35 PM 33.4 °F 29.1 °F 32.2 °F 95% 30.13 in 2.5 mi WSW 4.6 mph - N/A Rain Light Rain
2:55 PM 32.9 °F 29.8 °F 32.2 °F 97% 30.14 in 2.0 mi SW 3.5 mph - 0.01 in Rain Light Rain
3:15 PM 32.5 °F - 32.4 °F 99% 30.13 in 2.5 mi Calm Calm - N/A   Overcast
3:35 PM 32.5 °F - 32.5 °F 100% 30.12 in 2.0 mi Calm Calm - N/A Rain Light Rain
3:55 PM 32.4 °F - 32.4 °F 100% 30.12 in 1.8 mi Calm Calm - N/A Rain Light Rain
4:15 PM 32.2 °F - 32.2 °F 100% 30.12 in 1.8 mi Calm Calm - N/A Rain Light Rain
4:35 PM 32.2 °F - 32.2 °F 100% 30.12 in 1.8 mi Calm Calm - N/A   Light Drizzle
4:55 PM 32.0 °F - 32.0 °F 100% 30.13 in 2.0 mi Calm Calm - N/A Snow Light Snow
5:15 PM 32.0 °F - 32.0 °F 100% 30.13 in 2.5 mi Calm Calm - N/A Rain Light Rain
5:35 PM 32.0 °F 28.7 °F 32.0 °F 100% 30.11 in 1.8 mi SSE 3.5 mph - 0.01 in Snow Light Snow
5:55 PM 32.0 °F - 32.0 °F 100% 30.12 in 1.5 mi Calm Calm - 0.01 in Snow Light Snow
6:15 PM 32.0 °F - 32.0 °F 100% 30.12 in 2.0 mi Calm Calm - N/A Snow Light Snow
6:35 PM 32.0 °F - 32.0 °F 100% 30.11 in 2.0 mi Calm Calm - N/A Rain Rain
6:55 PM 32.0 °F 27.5 °F 32.0 °F 100% 30.11 in 2.0 mi South 4.6 mph - N/A Snow Light Snow
7:15 PM 32.0 °F 28.7 °F 32.0 °F 100% 30.11 in 1.5 mi South 3.5 mph - 0.01 in Snow Light Snow
7:35 PM 32.0 °F - 32.0 °F 100% 30.11 in 1.8 mi Calm Calm - 0.01 in Snow Light Snow
7:55 PM 32.0 °F 28.7 °F 32.0 °F 100% 30.12 in 1.8 mi SSW 3.5 mph - 0.01 in Rain Light Rain
8:15 PM 32.0 °F - 32.0 °F 100% 30.11 in 1.5 mi Calm Calm - 0.01 in   Overcast
8:35 PM 32.0 °F - 32.0 °F 100% 30.10 in 1.0 mi Calm Calm - 0.02 in Snow Light Snow
8:55 PM 32.0 °F - 32.0 °F 100% 30.09 in 1.2 mi Calm Calm - 0.02 in Snow Light Snow
9:15 PM 32.0 °F - 32.0 °F 100% 30.10 in 1.2 mi Calm Calm - N/A Rain Light Rain
9:35 PM 32.0 °F - 32.0 °F 100% 30.09 in 1.0 mi Calm Calm - N/A Rain Light Rain
9:55 PM 32.0 °F - 32.0 °F 100% 30.09 in 1.2 mi Calm Calm - N/A   Light Drizzle
10:15 PM 32.0 °F - 32.0 °F 100% 30.08 in 1.2 mi Calm Calm - N/A   Drizzle
10:35 PM 32.0 °F 28.7 °F 32.0 °F 100% 30.09 in 1.5 mi NNW 3.5 mph - N/A   Light Drizzle
10:55 PM 32.0 °F - 32.0 °F 100% 30.10 in 1.8 mi Calm Calm - N/A   Overcast
11:15 PM 32.0 °F 28.7 °F 32.0 °F 100% 30.10 in 1.8 mi NNW 3.5 mph - N/A   Overcast
11:35 PM 32.0 °F 28.7 °F 32.0 °F 100% 30.09 in 1.5 mi NNW 3.5 mph - N/A   Drizzle
11:55 PM 32.0 °F 28.7 °F 32.0 °F 100% 30.10 in 1.8 mi NNW 3.5 mph - N/A   Light Drizzle